Eugene, OR

9:11 PM PST on December 13, 2019 (GMT -0800)
Mahlon Sweet

Weather History for KEUG - November, 2019

Change the Weather History Date:

Thursday, November 21, 2019

  Actual Average Record
Temperature  
Mean Temperature 41 °F 44 °F  
Max Temperature 54 °F 50 °F 67 °F (2017)
Min Temperature 27 °F 37 °F 19 °F (1929)
Degree Days  
Heating Degree Days 24 21  
Month to date heating degree days 381 400  
Since 1 July heating degree days 977 970  
Cooling Degree Days 0 0  
Month to date cooling degree days 0 0  
Year to date cooling degree days 353 239  
Moisture  
Dew Point 32 °F    
Average Humidity 73    
Maximum Humidity 92    
Minimum Humidity 54    
Precipitation  
Precipitation 0.00 in 0.28 in 2.00 in (1980)
Month to date precipitation 0.51 5.06  
Year to date precipitation 30.25 35.61  
Sea Level Pressure  
Sea Level Pressure 29.99 in    
Wind  
Wind Speed 3 mph (North)    
Max Wind Speed 10 mph    
Max Gust Speed 12 mph    
Visibility 10 miles    
Events      
T = Trace of Precipitation, MM = Missing Value Source: NWS Daily Summary

Daily Weather History Graph

Daily Weather History Graph

Search for Another Location

Airport or City:

Astronomy

Nov. 21, 2019 Rise Set
Actual Time 7:15 AM PST 4:41 PM PST
Civil Twilight 6:44 AM PST 5:13 PM PST
Nautical Twilight 6:08 AM PST 5:48 PM PST
Astronomical Twilight 5:34 AM PST 6:22 PM PST
Moon 1:02 AM PST (11/21) 2:27 PM PST (11/21)
Length of Visible Light 10h 28m
Length of Day
9h 25m
Waning Crescent, 28% of the Moon is Illuminated
Nov 21
Waning Crescent
Nov 26
New
Dec 3
First Quarter
Dec 11
Full
Dec 18
Last Quarter

Hourly Weather History & Observations

Time (PST) Temp. Windchill Dew Point Humidity Pressure Visibility Wind Dir Wind Speed Gust Speed Precip Events Conditions
12:54 AM 35.1 °F 31.0 °F 30.0 °F 82% 29.95 in 10.0 mi East 4.6 mph - N/A   Clear
1:54 AM 35.1 °F - 30.0 °F 82% 29.94 in 10.0 mi Calm Calm - N/A   Clear
2:54 AM 33.1 °F - 28.9 °F 85% 29.94 in 10.0 mi Calm Calm - N/A   Clear
3:54 AM 30.9 °F - 27.0 °F 85% 29.94 in 10.0 mi Calm Calm - N/A   Clear
4:54 AM 28.9 °F - 26.1 °F 89% 29.95 in 10.0 mi Calm Calm - N/A   Clear
5:54 AM 30.0 °F - 26.1 °F 85% 29.95 in 10.0 mi Calm Calm - N/A   Clear
6:54 AM 28.0 °F 22.8 °F 24.1 °F 85% 29.95 in 10.0 mi SW 4.6 mph - N/A   Clear
9:54 AM 42.1 °F 40.2 °F 33.1 °F 70% 29.98 in 10.0 mi NE 3.5 mph - N/A   Partly Cloudy
10:54 AM 45.0 °F 41.8 °F 34.0 °F 65% 29.96 in 10.0 mi North 5.8 mph - N/A   Clear
11:54 AM 48.0 °F - 36.0 °F 63% 29.94 in 10.0 mi North 5.8 mph - N/A   Clear
12:54 PM 51.1 °F - 37.0 °F 59% 29.94 in 10.0 mi North 6.9 mph - N/A   Clear
1:54 PM 53.1 °F - 37.0 °F 55% 29.94 in 10.0 mi North 4.6 mph - N/A   Clear
2:54 PM 54.0 °F - 37.0 °F 53% 29.94 in 10.0 mi NNW 3.5 mph - N/A   Clear
3:54 PM 53.1 °F - 39.0 °F 59% 29.96 in 10.0 mi North 4.6 mph - N/A   Clear
4:54 PM 46.9 °F - 37.9 °F 71% 29.99 in 10.0 mi Calm Calm - N/A   Clear
5:54 PM 41.0 °F 39.0 °F 35.1 °F 79% 30.00 in 10.0 mi South 3.5 mph - N/A   Clear
6:54 PM 36.0 °F 32.1 °F 33.1 °F 89% 30.01 in 10.0 mi SW 4.6 mph - N/A   Clear
7:54 PM 37.0 °F 29.8 °F 32.0 °F 82% 30.03 in 10.0 mi SSE 10.4 mph - N/A   Clear
8:54 PM 34.0 °F 28.8 °F 30.9 °F 89% 30.06 in 10.0 mi SSW 5.8 mph - N/A   Clear
9:54 PM 32.0 °F 27.5 °F 28.9 °F 88% 30.07 in 10.0 mi SSE 4.6 mph - N/A   Clear
10:54 PM 34.0 °F 31.0 °F 30.9 °F 89% 30.11 in 10.0 mi SW 3.5 mph - N/A   Clear
11:54 PM 30.9 °F - 28.9 °F 92% 30.13 in 8.0 mi Calm Calm - N/A   Clear